Location: Berlin
(42.3812°N, 71.6370°W)
Time: 20:53:17
(UTC+00:00)

Cosmos 1943 - Pass Details

Date: 15 November 2025
Orbit: 832 x 847 km, 71.0° (Epoch: 11 December)

Event Time Altitude Azimuth Distance (km) Brightness Sun altitude
Rises 10:26:39 0° 197° (SSW) 3,364 6.3 -13.2°
Reaches altitude 10° 10:29:04 10° 196° (SSW) 2,433 5.6 -12.8°
Maximum altitude 10:34:38 76° 112° (ESE) 861 3.4 -11.8°
Drops below altitude 10° 10:40:14 10° 27° (NNE) 2,448 5.8 -10.8°
Sets 10:42:41 0° 26° (NNE) 3,387 6.5 -10.4°
